Flag for India Weather past 2 weeks in Chennai, Tamil Nadu, India

Now
82 °F

Partly cloudy.


Feels Like: 91 °F
Forecast: 79 / 95 °F
Wind: 7 mph from North

Location: Madras / Minambakkam

Current Time: Aug 3, 2015 at 4:37:01 AM

Latest Report: Aug 3, 2015 at 4:10 AM


Visibility: 4 mi

Pressure: 29.71 "Hg

Humidity: 84%

Dew point: 77 °F

Location of ChennaiLocation

Historic Weather in Chennai — Graph

°F

Chennai temperature yesterday

Maximum temperature yesterday: 91 °F (at 3:40 PM)
Minimum temperature yesterday: 77 °F (at 3:40 AM)
Average temperature yesterday: 83 °F

Past Weeks' High & Low Weather Summary

 TemperatureHumidityPressure
High99 °F (Jul 20, 3:10 PM)94% (Jul 23, 9:40 PM)29.86 "Hg (Jul 23, 9:40 PM)
Low75 °F (Aug 1, 12:40 AM)39% (Jul 20, 3:40 PM)29.53 "Hg (Jul 20, 3:40 PM)
Average86 °F71%29.70 "Hg
* Reported Jul 19 2:40 AM — Aug 3 2:40 AM, Chennai, Weather by CustomWeather, © 2015

Note: Actual official high and low records may vary slightly from our data, if they occured in-between our weather recording intervals... More about our weather records

Advertising

Chennai weather history for previous 24 hours

 ConditionsComfort  
Time TempWeatherWind HumidityBarometerVisibility
2:40 AM
Mon, Aug 3
82 °FPartly cloudy.12 mph84%29.68 "Hg4 mi
2:10 AM82 °FPartly cloudy.7 mph89%29.68 "Hg4 mi
1:40 AM84 °FPartly cloudy.9 mph84%29.71 "Hg4 mi
1:10 AM84 °FPartly cloudy.9 mph79%N/A4 mi
12:40 AM84 °FPartly cloudy.7 mph79%29.71 "Hg4 mi
12:10 AM84 °FPassing clouds.7 mph79%29.71 "Hg4 mi
11:40 PM
Sun, Aug 2
84 °FPassing clouds.5 mph84%29.74 "Hg4 mi
11:10 PM84 °FPassing clouds.7 mph84%29.74 "Hg4 mi
10:40 PM84 °FPassing clouds.7 mph84%29.74 "Hg4 mi
9:40 PM86 °FPassing clouds.7 mph79%29.71 "Hg4 mi
9:10 PM86 °FPassing clouds.5 mph79%29.71 "Hg4 mi
8:40 PM88 °FPassing clouds.7 mph75%29.71 "Hg4 mi
8:10 PM88 °FPassing clouds.9 mph75%29.71 "Hg4 mi
7:40 PM90 °FPassing clouds.6 mph67%29.68 "Hg4 mi
7:10 PM90 °FPassing clouds.3 mph67%29.68 "Hg4 mi
6:40 PM90 °FScattered clouds.5 mph67%29.68 "Hg4 mi
6:10 PM91 °FScattered clouds.5 mph63%29.68 "Hg4 mi
5:40 PM91 °FScattered clouds.3 mph63%29.68 "Hg4 mi
5:10 PM91 °FScattered clouds.5 mph63%29.65 "Hg4 mi
4:40 PM91 °FScattered clouds.7 mph63%29.65 "Hg4 mi
4:10 PM91 °FScattered clouds.9 mph63%29.65 "Hg4 mi
3:40 PM91 °FScattered clouds.9 mph63%29.68 "Hg4 mi
3:10 PM90 °FScattered clouds.9 mph67%29.68 "Hg4 mi
2:40 PM88 °FBroken clouds.7 mph66%29.71 "Hg4 mi
2:10 PM86 °FBroken clouds.9 mph70%29.71 "Hg4 mi
1:40 PM86 °FMore clouds than sun.9 mph70%29.74 "Hg4 mi
1:10 PM86 °FBroken clouds.9 mph70%29.74 "Hg4 mi
12:40 PM86 °FBroken clouds.9 mph70%29.77 "Hg4 mi
12:10 PM84 °FBroken clouds.5 mph79%29.80 "Hg4 mi
11:40 AM84 °FBroken clouds.5 mph79%29.80 "Hg4 mi
11:10 AM82 °FBroken clouds.5 mph84%29.83 "Hg4 mi
10:40 AM81 °FDrizzle. More clouds than sun.No wind89%29.83 "Hg4 mi
10:10 AM81 °FDrizzle. More clouds than sun.5 mph84%29.86 "Hg4 mi
9:40 AM79 °FDrizzle. More clouds than sun.5 mph89%29.83 "Hg4 mi
9:10 AM79 °FDrizzle. More clouds than sun.5 mph89%29.83 "Hg4 mi
8:40 AM77 °FDrizzle. More clouds than sun.5 mph94%29.83 "Hg4 mi
8:10 AM79 °FDrizzle. More clouds than sun.5 mph89%29.80 "Hg4 mi
7:40 AM79 °FDrizzle. More clouds than sun.5 mph84%29.80 "Hg4 mi
7:10 AM77 °FDrizzle. More clouds than sun.No wind89%29.80 "Hg4 mi
6:40 AM77 °FDrizzle. More clouds than sun.No wind89%29.77 "Hg4 mi
6:10 AM77 °FDrizzle. Mostly cloudy.5 mph89%29.77 "Hg4 mi
5:40 AM77 °FDrizzle. Mostly cloudy.5 mph89%29.77 "Hg4 mi
5:10 AM77 °FDrizzle. Mostly cloudy.3 mph89%29.74 "Hg4 mi
4:40 AM77 °FDrizzle. Mostly cloudy.5 mph89%29.74 "Hg4 mi
4:10 AM77 °FDrizzle. Mostly cloudy.5 mph89%29.74 "Hg4 mi
Weather by CustomWeather, © 2015

See weather overviewHow to use our weather pages